Location: Ford County Road and Bridge Department
(37.7686°N, 99.9762°W)
Time: 15:02:07
(UTC+00:00)

Cosmos 2333 - Pass Details

Date: 18 January 2020
Orbit: 831 x 865 km, 70.9° (Epoch: 26 February)

Event Time Altitude Azimuth Distance (km) Brightness Sun altitude
Rises 00:13:54 0° 342° (NNW) 3,437 7.3 -5.8°
Reaches altitude 10° 00:16:27 10° 347° (NNW) 2,492 6.6 -6.2°
Maximum altitude 00:22:02 52° 64° (ENE) 1,048 4.4 -7.3°
Drops below altitude 10° 00:27:31 10° 140° (SE) 2,454 6.4 -8.3°
Sets 00:30:00 0° 145° (SE) 3,380 7.2 -8.7°
